Markham, Ontario

9:54 PM EST on February 10, 2016 (GMT -0500)
Toronto-Buttonville Municipal

Weather History for CYKZ - November, 2012

Change the Weather History Date:

Wednesday, November 7, 2012

  Actual Average Record
Temperature  
Mean Temperature 36 °F -  
Max Temperature 43 °F 46 °F 66 °F (1996)
Min Temperature 28 °F 31 °F 19 °F (2002)
Degree Days  
Heating Degree Days 30    
Moisture  
Dew Point 22 °F    
Average Humidity 57    
Maximum Humidity 74    
Minimum Humidity 34    
Precipitation  
Precipitation 0.00 in - - ()
Sea Level Pressure  
Sea Level Pressure 30.13 in    
Wind  
Wind Speed 6 mph ()    
Max Wind Speed 13 mph    
Max Gust Speed -    
Visibility 15.0 miles    
Events      
Averages and records for this station are not official NWS values.
T = Trace of Precipitation, MM = Missing Value Source: Averaged Metar Reports

Daily Weather History Graph

Daily Weather History Graph

Search for Another Location

Airport or City:

Trip Planner

Search our weather history database for the weather conditions in past years. The results will help you decide how hot, cold, wet, or windy it might be!

Date:

Astronomy

Nov. 07, 2012 Rise Set
Actual Time 7:02 AM EST 4:59 PM EST
Civil Twilight 6:31 AM EST 5:30 PM EST
Nautical Twilight 5:57 AM EST 6:04 PM EST
Astronomical Twilight 5:23 AM EST 6:38 PM EST
Moon No Moon Rise 1:20 PM EST (11/7)
Length of Visible Light 10h 58m
Length of Day
9h 57m
Last Quarter, 43% of the Moon is Illuminated
Nov 7
Last Quarter
Nov 13
New
Nov 20
First Quarter
Nov 28
Full
Dec 6
Last Quarter

Hourly Weather History & Observations

Time (EST) Temp. Windchill Dew Point Humidity Pressure Visibility Wind Dir Wind Speed Gust Speed Precip Events Conditions
12:00 AM 33.8 °F 28.6 °F 24.8 °F 70% 30.11 in 15.0 mi NE 5.8 mph - N/A   Mostly Cloudy
1:00 AM 34 °F - 24 °F 57% 30.10 in 15 mi NE 5.8 mph - -   Mostly Cloudy
1:00 AM 33.8 °F 28.6 °F 24.8 °F 70% 30.10 in 15.0 mi NE 5.8 mph - N/A   Mostly Cloudy
2:00 AM 33.8 °F 28.6 °F 23.0 °F 65% 30.11 in 15.0 mi NE 5.8 mph - N/A   Mostly Cloudy
3:00 AM 33.8 °F 27.0 °F 23.0 °F 65% 30.13 in 15.0 mi ENE 8.1 mph - N/A   Mostly Cloudy
4:00 AM 33.8 °F 26.4 °F 21.2 °F 60% 30.14 in 15.0 mi ENE 9.2 mph - N/A   Mostly Cloudy
5:00 AM 33.8 °F 27.0 °F 21.2 °F 60% 30.12 in 15.0 mi NE 8.1 mph - N/A   Mostly Cloudy
6:00 AM 32.0 °F 23.6 °F 21.2 °F 64% 30.10 in 15.0 mi NNE 10.4 mph - N/A   Mostly Cloudy
7:00 AM 30 °F - 20 °F 55% 30.12 in 15 mi NE 8.1 mph - -   Partly Cloudy
7:00 AM 30.2 °F 22.6 °F 19.4 °F 64% 30.12 in 15.0 mi NE 8.1 mph - N/A   Scattered Clouds
8:00 AM 32.0 °F 24.8 °F 19.4 °F 60% 30.14 in 15.0 mi NE 8.1 mph - N/A   Mostly Cloudy
9:00 AM 35.6 °F 27.1 °F 19.4 °F 52% 30.16 in 15.0 mi NE 12.7 mph - N/A   Partly Cloudy
10:00 AM 37.4 °F 30.3 °F 19.4 °F 48% 30.17 in 15.0 mi ENE 10.4 mph - N/A   Scattered Clouds
11:00 AM 39.2 °F 33.0 °F 21.2 °F 49% 30.16 in 15.0 mi ENE 9.2 mph - N/A   Mostly Cloudy
12:00 PM 41.0 °F 35.2 °F 24.8 °F 53% 30.14 in 15.0 mi NE 9.2 mph - N/A   Scattered Clouds
1:00 PM 42 °F - 23 °F 34% 30.12 in 15 mi ENE 6.9 mph - -   Scattered Clouds
1:00 PM 42.8 °F 38.6 °F 23.0 °F 46% 30.12 in 15.0 mi NE 6.9 mph - N/A   Scattered Clouds
2:00 PM 42.8 °F 40.1 °F 23.0 °F 46% 30.10 in 15.0 mi North 4.6 mph - N/A   Partly Cloudy
3:00 PM 41.0 °F 38.0 °F 21.2 °F 45% 30.10 in 15.0 mi NNE 4.6 mph - N/A   Mostly Cloudy
4:00 PM 41.0 °F 35.8 °F 21.2 °F 45% 30.11 in 15.0 mi NNE 8.1 mph - N/A   Mostly Cloudy
5:00 PM 39.2 °F 35.9 °F 21.2 °F 49% 30.12 in 15.0 mi NNE 4.6 mph - N/A   Mostly Cloudy
6:00 PM 35.6 °F 31.7 °F 21.2 °F 56% 30.14 in 15.0 mi NNE 4.6 mph - N/A   Partly Cloudy
7:00 PM 34 °F - 21 °F 45% 30.15 in 15 mi NNE 4.6 mph - -   Clear
7:00 PM 33.8 °F 29.6 °F 21.2 °F 60% 30.15 in 15.0 mi NNE 4.6 mph - N/A   Partly Cloudy
8:00 PM 30.2 °F 26.7 °F 21.2 °F 69% 30.16 in 15.0 mi North 3.5 mph - N/A   Partly Cloudy
9:00 PM 28.4 °F 24.6 °F 21.2 °F 74% 30.16 in 15.0 mi North 3.5 mph - N/A   Clear
10:00 PM 30.2 °F 25.4 °F 19.4 °F 64% 30.16 in 15.0 mi NE 4.6 mph - N/A   Partly Cloudy
11:00 PM 30.2 °F - 19.4 °F 64% 30.16 in 15.0 mi North 2.3 mph - N/A   Partly Cloudy